| time (UTC) | temp C | wind direction | speed KPH | gust KPH | rain 1hr cm | rain 24hr cm | rain mn cm | humidity % | barometer mb |
| 20260507162006 | 15 | 46 | 6.4 | 16.1 | 0.00 | 0.10 | 0.10 | 44 | 1006.3 |
| 20260507161502 | 15 | 279 | 8.0 | 30.6 | 0.00 | 0.10 | 0.10 | 42 | 1006.4 |
| 20260507160959 | 15 | 282 | 11.3 | 24.1 | 0.00 | 0.10 | 0.10 | 44 | 1006.4 |
| 20260507160455 | 15 | 257 | 16.1 | 20.9 | 0.00 | 0.10 | 0.10 | 45 | 1006.4 |
| 20260507155950 | 15 | 296 | 8.0 | 25.7 | 0.00 | 0.10 | 0.10 | 49 | 1006.3 |
| 20260507155447 | 15 | 8 | 0.0 | 14.5 | 0.00 | 0.10 | 0.10 | 50 | 1006.4 |
| 20260507154944 | 15 | 338 | 3.2 | 8.0 | 0.00 | 0.10 | 0.10 | 50 | 1006.5 |
| 20260507154440 | 15 | 308 | 14.5 | 19.3 | 0.00 | 0.10 | 0.10 | 49 | 1006.6 |
| 20260507153938 | 14 | 264 | 12.9 | 20.9 | 0.00 | 0.10 | 0.10 | 52 | 1006.4 |
| 20260507153435 | 14 | 63 | 3.2 | 17.7 | 0.00 | 0.10 | 0.10 | 54 | 1006.5 |
| 20260507152931 | 15 | 22 | 0.0 | 6.4 | 0.00 | 0.10 | 0.10 | 55 | 1006.4 |
| 20260507152427 | 15 | 61 | 8.0 | 9.7 | 0.00 | 0.10 | 0.10 | 55 | 1006.6 |
| 20260507151923 | 15 | 349 | 1.6 | 6.4 | 0.00 | 0.10 | 0.10 | 57 | 1006.7 |
| 20260507151420 | 14 | 275 | 9.7 | 32.2 | 0.00 | 0.10 | 0.10 | 56 | 1006.8 |
| 20260507150917 | 15 | 190 | 6.4 | 14.5 | 0.00 | 0.10 | 0.10 | 58 | 1006.6 |
| 20260507150413 | 15 | 303 | 6.4 | 16.1 | 0.00 | 0.10 | 0.10 | 59 | 1006.8 |
| 20260507145910 | 15 | 286 | 8.0 | 12.9 | 0.00 | 0.10 | 0.10 | 57 | 1006.8 |
| 20260507145406 | 14 | 249 | 6.4 | 12.9 | 0.00 | 0.10 | 0.10 | 57 | 1006.7 |
| 20260507144903 | 13 | 0 | 3.2 | 11.3 | 0.00 | 0.10 | 0.10 | 60 | 1006.9 |
| 20260507144400 | 13 | 312 | 8.0 | 27.4 | 0.00 | 0.10 | 0.10 | 62 | 1006.9 |
| 20260507143857 | 14 | 292 | 6.4 | 22.5 | 0.00 | 0.10 | 0.10 | 60 | 1007.1 |
| 20260507143354 | 14 | 282 | 14.5 | 14.5 | 0.00 | 0.10 | 0.10 | 63 | 1007.0 |
| 20260507142851 | 13 | 219 | 6.4 | 14.5 | 0.00 | 0.10 | 0.10 | 67 | 1007.0 |
| 20260507142347 | 13 | 272 | 8.0 | 12.9 | 0.00 | 0.10 | 0.10 | 68 | 1007.1 |
| 20260507141843 | 13 | 259 | 4.8 | 16.1 | 0.00 | 0.10 | 0.10 | 67 | 1007.1 |
| 20260507141340 | 13 | 43 | 3.2 | 12.9 | 0.00 | 0.10 | 0.10 | 66 | 1007.1 |
| 20260507140837 | 16 | 79 | 3.2 | 6.4 | 0.00 | 0.10 | 0.10 | 64 | 1006.9 |
| 20260507140333 | 14 | 82 | 3.2 | 12.9 | 0.00 | 0.10 | 0.10 | 66 | 1007.2 |
| 20260507135831 | 13 | 28 | 3.2 | 3.2 | 0.00 | 0.10 | 0.10 | 68 | 1007.0 |
| 20260507135328 | 13 | 190 | 4.8 | 14.5 | 0.00 | 0.10 | 0.10 | 66 | 1007.1 |
| 20260507134825 | 13 | 73 | 3.2 | 8.0 | 0.00 | 0.10 | 0.10 | 68 | 1006.9 |
| 20260507134321 | 13 | 307 | 8.0 | 12.9 | 0.00 | 0.10 | 0.10 | 68 | 1006.9 |
| 20260507133817 | 14 | 51 | 1.6 | 11.3 | 0.00 | 0.10 | 0.10 | 68 | 1006.9 |
| 20260507133313 | 13 | 64 | 3.2 | 6.4 | 0.00 | 0.10 | 0.10 | 68 | 1006.9 |
| 20260507132812 | 13 | 284 | 1.6 | 8.0 | 0.00 | 0.10 | 0.10 | 69 | 1006.8 |
| 20260507132308 | 13 | 308 | 6.4 | 9.7 | 0.00 | 0.10 | 0.10 | 69 | 1007.0 |
| 20260507131805 | 12 | 288 | 0.0 | 14.5 | 0.00 | 0.10 | 0.10 | 71 | 1007.0 |
| 20260507131302 | 12 | 272 | 8.0 | 16.1 | 0.00 | 0.10 | 0.10 | 69 | 1007.4 |
| 20260507130758 | 13 | 34 | 1.6 | 8.0 | 0.00 | 0.10 | 0.10 | 70 | 1007.3 |
| 20260507130256 | 13 | 324 | 4.8 | 9.7 | 0.00 | 0.10 | 0.10 | 69 | 1007.1 |
| 20260507125755 | 13 | 58 | 0.0 | 14.5 | 0.00 | 0.10 | 0.10 | 72 | 1007.1 |
| 20260507125252 | 13 | 353 | 1.6 | 6.4 | 0.00 | 0.10 | 0.10 | 76 | 1007.1 |
| 20260507124749 | 12 | 288 | 8.0 | 9.7 | 0.00 | 0.10 | 0.10 | 74 | 1007.3 |
| 20260507124245 | 12 | 315 | 3.2 | 16.1 | 0.00 | 0.10 | 0.10 | 75 | 1007.5 |
| 20260507123744 | 13 | 254 | 3.2 | 6.4 | 0.00 | 0.10 | 0.10 | 77 | 1007.2 |
| 20260507123241 | 12 | 359 | 1.6 | 8.0 | 0.00 | 0.10 | 0.10 | 78 | 1007.3 |
| 20260507122736 | 11 | 49 | 8.0 | 20.9 | 0.00 | 0.10 | 0.10 | 81 | 1007.4 |
| 20260507122232 | 11 | 261 | 3.2 | 4.8 | 0.00 | 0.10 | 0.10 | 82 | 1007.2 |
| 20260507121728 | 11 | 102 | 3.2 | 6.4 | 0.00 | 0.10 | 0.10 | 84 | 1007.3 |
| 20260507121224 | 10 | 205 | 3.2 | 11.3 | 0.00 | 0.10 | 0.10 | 86 | 1007.6 |
| 20260507120720 | 10 | 148 | 0.0 | 8.0 | 0.00 | 0.10 | 0.10 | 87 | 1007.4 |
| 20260507120218 | 11 | 87 | 1.6 | 3.2 | 0.00 | 0.10 | 0.10 | 89 | 1007.3 |
| 20260507115713 | 10 | 107 | 0.0 | 3.2 | 0.00 | 0.10 | 0.10 | 92 | 1007.4 |
| 20260507115209 | 10 | 299 | 0.0 | 6.4 | 0.00 | 0.10 | 0.10 | 92 | 1007.3 |
| 20260507114705 | 10 | 80 | 0.0 | 3.2 | 0.00 | 0.10 | 0.10 | 94 | 1007.4 |
| 20260507114203 | 9 | 130 | 0.0 | 0.0 | 0.00 | 0.10 | 0.10 | 95 | 1007.5 |
| 20260507113700 | 9 | 306 | 0.0 | 0.0 | 0.00 | 0.10 | 0.10 | 96 | 1007.5 |
| 20260507113157 | 9 | 109 | 1.6 | 3.2 | 0.00 | 0.10 | 0.10 | 97 | 1007.0 |
| 20260507112654 | 9 | 53 | 1.6 | 3.2 | 0.00 | 0.10 | 0.10 | 97 | 1007.1 |
| 20260507112151 | 8 | 59 | 1.6 | 1.6 | 0.00 | 0.10 | 0.10 | 97 | 1007.5 |
| 20260507111648 | 8 | 59 | 1.6 | 1.6 | 0.00 | 0.10 | 0.10 | 98 | 1007.3 |
| 20260507111145 | 9 | 159 | 0.0 | 1.6 | 0.00 | 0.10 | 0.10 | 98 | 1007.3 |
| 20260507110641 | 8 | 130 | 0.0 | 3.2 | 0.00 | 0.10 | 0.10 | 98 | 1007.1 |
| 20260507110138 | 8 | 135 | 0.0 | 1.6 | 0.00 | 0.10 | 0.10 | 98 | 1007.0 |
| 20260507105635 | 8 | 73 | 3.2 | 3.2 | 0.00 | 0.10 | 0.10 | 98 | 1006.9 |
| 20260507105131 | 8 | 95 | 1.6 | 3.2 | 0.00 | 0.10 | 0.10 | 98 | 1007.4 |
| 20260507104628 | 8 | 129 | 3.2 | 3.2 | 0.00 | 0.10 | 0.10 | 98 | 1007.0 |
| 20260507104125 | 8 | 109 | 1.6 | 3.2 | 0.00 | 0.10 | 0.10 | 98 | 1007.2 |
| 20260507103621 | 8 | 99 | 3.2 | 3.2 | 0.00 | 0.10 | 0.10 | 98 | 1007.2 |
| 20260507103118 | 8 | 89 | 0.0 | 3.2 | 0.00 | 0.10 | 0.10 | 98 | 1007.0 |
| 20260507102614 | 8 | 166 | 0.0 | 1.6 | 0.05 | 0.10 | 0.10 | 98 | 1006.8 |
| 20260507102110 | 8 | 218 | 0.0 | 3.2 | 0.05 | 0.10 | 0.10 | 98 | 1006.6 |
| 20260507101606 | 8 | 88 | 0.0 | 3.2 | 0.00 | 0.10 | 0.10 | 97 | 1006.5 |
| 20260507101102 | 8 | 89 | 0.0 | 0.0 | 0.00 | 0.10 | 0.10 | 97 | 1006.3 |
| 20260507100559 | 8 | 94 | 0.0 | 3.2 | 0.00 | 0.10 | 0.10 | 97 | 1006.3 |
| 20260507100058 | 8 | 83 | 3.2 | 3.2 | 0.00 | 0.10 | 0.10 | 97 | 1006.2 |
| 20260507095555 | 8 | 111 | 0.0 | 3.2 | 0.00 | 0.10 | 0.10 | 97 | 1006.5 |
| 20260507095052 | 8 | 235 | 0.0 | 3.2 | 0.00 | 0.10 | 0.10 | 97 | 1006.7 |
| 20260507094548 | 8 | 114 | 1.6 | 3.2 | 0.00 | 0.10 | 0.10 | 96 | 1006.3 |
| 20260507094045 | 8 | 72 | 3.2 | 3.2 | 0.00 | 0.10 | 0.10 | 97 | 1006.3 |
| 20260507093543 | 8 | 303 | 0.0 | 3.2 | 0.05 | 0.10 | 0.10 | 96 | 1006.5 |
| 20260507093041 | 8 | 271 | 1.6 | 4.8 | 0.05 | 0.10 | 0.10 | 96 | 1006.5 |
| 20260507092537 | 8 | 89 | 1.6 | 1.6 | 0.05 | 0.08 | 0.08 | 96 | 1006.6 |
| 20260507092034 | 8 | 70 | 4.8 | 4.8 | 0.05 | 0.08 | 0.08 | 96 | 1006.6 |
| 20260507091531 | 8 | 42 | 0.0 | 3.2 | 0.05 | 0.08 | 0.08 | 96 | 1006.6 |
| 20260507091027 | 8 | 72 | 3.2 | 3.2 | 0.00 | 0.05 | 0.05 | 96 | 1006.5 |
| 20260507090523 | 8 | 99 | 1.6 | 4.8 | 0.00 | 0.05 | 0.05 | 96 | 1006.6 |
| 20260507090020 | 8 | 324 | 0.0 | 3.2 | 0.05 | 0.05 | 0.05 | 95 | 1006.9 |
| 20260507085517 | 8 | 32 | 0.0 | 3.2 | 0.05 | 0.05 | 0.05 | 95 | 1006.9 |
| 20260507085014 | 8 | 81 | 0.0 | 1.6 | 0.00 | 0.05 | 0.05 | 95 | 1007.1 |
| 20260507084510 | 8 | 89 | 0.0 | 3.2 | 0.00 | 0.05 | 0.05 | 94 | 1007.1 |
| 20260507084007 | 8 | 156 | 0.0 | 1.6 | 0.00 | 0.05 | 0.05 | 94 | 1006.9 |
| 20260507083503 | 8 | 203 | 0.0 | 3.2 | 0.00 | 0.05 | 0.05 | 94 | 1006.7 |
| 20260507083000 | 8 | 126 | 0.0 | 3.2 | 0.00 | 0.05 | 0.05 | 94 | 1006.8 |
| 20260507082457 | 8 | 11 | 0.0 | 1.6 | 0.00 | 0.05 | 0.05 | 94 | 1006.8 |
| 20260507081953 | 8 | 167 | 0.0 | 3.2 | 0.00 | 0.05 | 0.05 | 94 | 1006.6 |
| 20260507081449 | 8 | 157 | 1.6 | 4.8 | 0.00 | 0.05 | 0.05 | 94 | 1006.5 |
| 20260507080946 | 9 | 48 | 1.6 | 3.2 | 0.00 | 0.05 | 0.05 | 94 | 1006.5 |
| 20260507080442 | 9 | 76 | 0.0 | 4.8 | 0.00 | 0.05 | 0.05 | 93 | 1006.3 |
| 20260507075937 | 9 | 79 | 0.0 | 3.2 | 0.00 | 0.05 | 0.05 | 93 | 1006.5 |
| 20260507075434 | 9 | 67 | 4.8 | 4.8 | 0.05 | 0.05 | 0.05 | 94 | 1006.6 |
| 20260507074931 | 9 | 72 | 1.6 | 6.4 | 0.13 | 0.05 | 0.05 | 93 | 1006.7 |
| 20260507074428 | 10 | 81 | 0.0 | 4.8 | 0.18 | 0.05 | 0.05 | 92 | 1006.6 |
| 20260507073926 | 10 | 99 | 3.2 | 6.4 | 0.18 | 0.03 | 0.03 | 90 | 1006.3 |
| 20260507073422 | 10 | 68 | 3.2 | 6.4 | 0.00 | 0.00 | 0.00 | 88 | 1006.2 |
| 20260507072919 | 10 | 313 | 1.6 | 8.0 | 0.00 | 0.00 | 0.00 | 86 | 1006.7 |
| 20260507072416 | 10 | 289 | 6.4 | 6.4 | 0.00 | 0.00 | 0.00 | 88 | 1006.3 |
| 20260507071914 | 10 | 299 | 6.4 | 6.4 | 0.00 | 0.00 | 0.00 | 87 | 1005.8 |
| 20260507071410 | 10 | 323 | 0.0 | 4.8 | 0.00 | 0.00 | 0.00 | 88 | 1005.9 |
| 20260507070901 | 11 | 291 | 1.6 | 9.7 | 0.00 | 0.00 | 0.00 | 87 | 1005.9 |
| 20260507070359 | 11 | 334 | 3.2 | 6.4 | 0.00 | 0.00 | 0.00 | 88 | 1005.8 |
| 20260507065856 | 11 | 300 | 3.2 | 6.4 | 0.00 | 0.00 | 0.00 | 88 | 1005.9 |
| 20260507065352 | 11 | 141 | 0.0 | 4.8 | 0.00 | 0.00 | 0.00 | 89 | 1005.6 |
| 20260507064849 | 11 | 245 | 0.0 | 4.8 | 0.00 | 0.00 | 0.00 | 89 | 1005.8 |
| 20260507064348 | 11 | 305 | 9.7 | 9.7 | 0.00 | 0.00 | 0.00 | 89 | 1005.7 |
| 20260507063845 | 11 | 279 | 1.6 | 4.8 | 0.00 | 0.00 | 0.00 | 89 | 1005.6 |
| 20260507063342 | 11 | 307 | 9.7 | 9.7 | 0.00 | 0.00 | 0.00 | 89 | 1005.7 |
| 20260507062839 | 11 | 210 | 0.0 | 4.8 | 0.00 | 0.00 | 0.00 | 90 | 1005.8 |
| 20260507062336 | 11 | 302 | 3.2 | 11.3 | 0.00 | 0.00 | 0.00 | 89 | 1005.9 |
| 20260507061834 | 11 | 43 | 1.6 | 6.4 | 0.00 | 0.00 | 0.00 | 90 | 1005.6 |
| 20260507061331 | 11 | 283 | 6.4 | 6.4 | 0.00 | 0.00 | 0.00 | 90 | 1005.7 |
| 20260507060830 | 11 | 84 | 1.6 | 4.8 | 0.00 | 0.00 | 0.00 | 89 | 1005.8 |
| 20260507060326 | 11 | 281 | 3.2 | 4.8 | 0.00 | 0.00 | 0.00 | 89 | 1005.8 |
| 20260507055823 | 11 | 55 | 0.0 | 3.2 | 0.00 | 0.00 | 0.00 | 90 | 1005.8 |
| 20260507055318 | 12 | 337 | 3.2 | 12.9 | 0.00 | 0.00 | 0.00 | 90 | 1005.8 |
| 20260507054815 | 12 | 292 | 1.6 | 3.2 | 0.00 | 0.00 | 0.00 | 91 | 1005.8 |
| 20260507054311 | 12 | 313 | 3.2 | 4.8 | 0.00 | 0.00 | 0.00 | 91 | 1005.9 |
| 20260507053808 | 12 | 288 | 3.2 | 4.8 | 0.00 | 0.00 | 0.00 | 92 | 1006.0 |
| 20260507053306 | 12 | 327 | 3.2 | 12.9 | 0.00 | 0.00 | 0.00 | 92 | 1006.0 |
| 20260507052805 | 12 | 53 | 0.0 | 4.8 | 0.00 | 0.00 | 0.00 | 94 | 1006.2 |
| 20260507052301 | 12 | 269 | 1.6 | 6.4 | 0.00 | 0.00 | 0.00 | 94 | 1006.1 |
| 20260507051759 | 12 | 103 | 0.0 | 4.8 | 0.00 | 0.00 | 0.00 | 94 | 1006.1 |
| 20260507051256 | 12 | 14 | 0.0 | 6.4 | 0.00 | 0.00 | 0.00 | 93 | 1006.1 |
| 20260507050752 | 12 | 282 | 0.0 | 4.8 | 0.00 | 0.00 | 0.00 | 93 | 1005.9 |
| 20260507050248 | 13 | 108 | 0.0 | 1.6 | 0.00 | 0.00 | 0.00 | 94 | 1005.9 |
| 20260507045745 | 13 | 306 | 6.4 | 6.4 | 0.00 | 0.00 | 0.00 | 94 | 1005.9 |
| 20260507045241 | 13 | 71 | 0.0 | 3.2 | 0.00 | 0.00 | 0.00 | 94 | 1006.0 |
| 20260507044739 | 13 | 322 | 1.6 | 3.2 | 0.00 | 0.00 | 0.00 | 94 | 1006.2 |
| 20260507044235 | 13 | 283 | 0.0 | 3.2 | 0.00 | 0.00 | 0.00 | 94 | 1006.0 |
| 20260507043731 | 13 | 57 | 3.2 | 6.4 | 0.00 | 0.00 | 0.00 | 94 | 1006.0 |
| 20260507043229 | 13 | 29 | 0.0 | 4.8 | 0.00 | 0.00 | 0.00 | 93 | 1005.8 |
| 20260507042725 | 13 | 282 | 3.2 | 6.4 | 0.00 | 0.00 | 0.00 | 93 | 1005.8 |
| 20260507042225 | 13 | 255 | 9.7 | 16.1 | 0.00 | 0.00 | 0.00 | 93 | 1005.8 |
| 20260507041723 | 13 | 292 | 3.2 | 8.0 | 0.00 | 0.00 | 0.00 | 94 | 1006.0 |
| 20260507041220 | 13 | 303 | 3.2 | 8.0 | 0.00 | 0.00 | 0.00 | 95 | 1005.8 |
| 20260507040717 | 13 | 93 | 3.2 | 4.8 | 0.00 | 0.00 | 0.00 | 95 | 1006.0 |
| 20260507040213 | 14 | 44 | 1.6 | 9.7 | 0.00 | 0.28 | 0.28 | 95 | 1005.7 |
| 20260507035709 | 14 | 276 | 4.8 | 6.4 | 0.00 | 0.28 | 0.28 | 96 | 1005.9 |
| 20260507035205 | 14 | 39 | 1.6 | 6.4 | 0.00 | 0.28 | 0.28 | 96 | 1005.8 |
| 20260507034702 | 14 | 250 | 3.2 | 4.8 | 0.00 | 0.28 | 0.28 | 97 | 1006.0 |
| 20260507034159 | 14 | 289 | 3.2 | 4.8 | 0.00 | 0.28 | 0.28 | 98 | 1005.8 |
| 20260507033658 | 14 | 191 | 3.2 | 4.8 | 0.00 | 0.28 | 0.28 | 99 | 1005.4 |
| 20260507033154 | 14 | 237 | 3.2 | 3.2 | 0.00 | 0.28 | 0.28 | 99 | 1005.5 |
| 20260507032652 | 15 | 256 | 3.2 | 4.8 | 0.00 | 0.28 | 0.28 | 99 | 1005.4 |
| 20260507032147 | 15 | 344 | 0.0 | 8.0 | 0.00 | 0.28 | 0.28 | 99 | 1005.2 |
| 20260507031645 | 15 | 208 | 6.4 | 9.7 | 0.00 | 0.28 | 0.28 | 99 | 1005.5 |
| 20260507031141 | 15 | 278 | 6.4 | 8.0 | 0.05 | 0.28 | 0.28 | 99 | 1005.4 |
| 20260507030638 | 15 | 266 | 3.2 | 14.5 | 0.05 | 0.28 | 0.28 | 99 | 1005.1 |
| 20260507030136 | 15 | 84 | 3.2 | 9.7 | 0.05 | 0.28 | 0.28 | 99 | 1005.2 |
| 20260507025633 | 15 | 254 | 1.6 | 20.9 | 0.00 | 0.28 | 0.28 | 98 | 1005.0 |
| 20260507025130 | 15 | 254 | 3.2 | 4.8 | 0.00 | 0.28 | 0.28 | 98 | 1005.1 |
| 20260507024628 | 15 | 229 | 3.2 | 4.8 | 0.00 | 0.28 | 0.28 | 98 | 1004.8 |
| 20260507024125 | 15 | 193 | 0.0 | 4.8 | 0.00 | 0.28 | 0.28 | 98 | 1005.1 |
| 20260507023620 | 15 | 193 | 0.0 | 4.8 | 0.00 | 0.28 | 0.28 | 98 | 1005.1 |
| 20260507023118 | 15 | 223 | 0.0 | 4.8 | 0.00 | 0.28 | 0.28 | 98 | 1005.0 |
| 20260507022614 | 15 | 180 | 3.2 | 8.0 | 0.00 | 0.28 | 0.28 | 98 | 1005.1 |
| 20260507022110 | 15 | 198 | 1.6 | 4.8 | 0.00 | 0.28 | 0.28 | 98 | 1005.1 |
| 20260507021606 | 15 | 243 | 3.2 | 4.8 | 0.00 | 0.28 | 0.28 | 98 | 1005.1 |
| 20260507021102 | 15 | 267 | 3.2 | 4.8 | 0.00 | 0.28 | 0.28 | 98 | 1004.9 |
| 20260507020601 | 15 | 115 | 0.0 | 3.2 | 0.00 | 0.28 | 0.28 | 98 | 1004.7 |
| 20260507020056 | 15 | 104 | 3.2 | 4.8 | 0.00 | 0.28 | 0.28 | 98 | 1005.0 |
| 20260507015555 | 15 | 260 | 3.2 | 9.7 | 0.00 | 0.28 | 0.28 | 98 | 1005.0 |
| 20260507015052 | 15 | 212 | 3.2 | 14.5 | 0.00 | 0.28 | 0.28 | 98 | 1005.0 |
| 20260507014549 | 15 | 268 | 1.6 | 6.4 | 0.00 | 0.28 | 0.28 | 98 | 1004.8 |
| 20260507014044 | 15 | 216 | 4.8 | 9.7 | 0.00 | 0.28 | 0.28 | 98 | 1004.8 |
| 20260507013542 | 15 | 232 | 8.0 | 14.5 | 0.00 | 0.28 | 0.28 | 98 | 1004.9 |
| 20260507013039 | 15 | 243 | 8.0 | 9.7 | 0.00 | 0.28 | 0.28 | 98 | 1005.0 |
| 20260507012536 | 15 | 105 | 3.2 | 4.8 | 0.00 | 0.28 | 0.28 | 98 | 1004.9 |
| 20260507012032 | 15 | 198 | 3.2 | 8.0 | 0.00 | 0.28 | 0.28 | 98 | 1005.0 |
| 20260507011530 | 15 | 214 | 6.4 | 9.7 | 0.00 | 0.28 | 0.28 | 99 | 1005.1 |
| 20260507011025 | 15 | 169 | 6.4 | 8.0 | 0.00 | 0.28 | 0.28 | 99 | 1005.1 |
| 20260507010520 | 15 | 209 | 3.2 | 6.4 | 0.00 | 0.28 | 0.28 | 98 | 1005.2 |
| 20260507010017 | 15 | 127 | 3.2 | 9.7 | 0.00 | 0.28 | 0.28 | 98 | 1005.2 |
| 20260507005515 | 15 | 170 | 1.6 | 8.0 | 0.00 | 0.28 | 0.28 | 98 | 1005.0 |
| 20260507005011 | 15 | 265 | 3.2 | 12.9 | 0.00 | 0.28 | 0.28 | 98 | 1005.2 |
| 20260507004508 | 15 | 193 | 8.0 | 11.3 | 0.00 | 0.28 | 0.28 | 98 | 1005.2 |
| 20260507004005 | 15 | 211 | 3.2 | 11.3 | 0.00 | 0.28 | 0.28 | 98 | 1005.1 |
| 20260507003500 | 15 | 164 | 3.2 | 8.0 | 0.00 | 0.28 | 0.28 | 98 | 1005.3 |
| 20260507002955 | 15 | 194 | 3.2 | 9.7 | 0.00 | 0.28 | 0.28 | 98 | 1005.0 |
| 20260507002452 | 15 | 154 | 1.6 | 14.5 | 0.00 | 0.28 | 0.28 | 98 | 1005.2 |
| 20260507001949 | 15 | 242 | 0.0 | 14.5 | 0.00 | 0.28 | 0.28 | 99 | 1005.1 |
| 20260507001446 | 15 | 215 | 8.0 | 8.0 | 0.00 | 0.28 | 0.28 | 99 | 1005.0 |
| 20260507000943 | 15 | 220 | 3.2 | 8.0 | 0.00 | 0.28 | 0.28 | 99 | 1005.0 |
| 20260507000439 | 15 | 176 | 3.2 | 12.9 | 0.00 | 0.28 | 0.28 | 99 | 1005.0 |
| 20260506235935 | 15 | 249 | 4.8 | 9.7 | 0.00 | 0.28 | 0.28 | 99 | 1004.6 |
| 20260506235433 | 15 | 206 | 3.2 | 8.0 | 0.00 | 0.28 | 0.28 | 99 | 1004.7 |
| 20260506234932 | 15 | 235 | 9.7 | 11.3 | 0.00 | 0.28 | 0.28 | 99 | 1004.6 |
| 20260506234431 | 15 | 152 | 3.2 | 6.4 | 0.00 | 0.28 | 0.28 | 99 | 1004.7 |
| 20260506233928 | 15 | 233 | 4.8 | 11.3 | 0.00 | 0.28 | 0.28 | 99 | 1004.9 |
| 20260506233425 | 15 | 266 | 4.8 | 14.5 | 0.00 | 0.28 | 0.28 | 99 | 1004.9 |
| 20260506232921 | 15 | 198 | 8.0 | 17.7 | 0.00 | 0.28 | 0.28 | 99 | 1004.8 |
| 20260506232418 | 15 | 135 | 0.0 | 6.4 | 0.05 | 0.28 | 0.28 | 99 | 1004.7 |
| 20260506231913 | 15 | 193 | 0.0 | 4.8 | 0.13 | 0.28 | 0.28 | 99 | 1004.9 |
| 20260506231411 | 15 | 237 | 4.8 | 9.7 | 0.13 | 0.25 | 0.25 | 99 | 1004.8 |
| 20260506230908 | 15 | 182 | 4.8 | 9.7 | 0.30 | 0.25 | 0.25 | 99 | 1004.9 |
| 20260506230405 | 15 | 183 | 3.2 | 4.8 | 0.36 | 0.23 | 0.23 | 99 | 1004.9 |
| 20260506225901 | 15 | 107 | 0.0 | 8.0 | 0.13 | 0.20 | 0.20 | 99 | 1004.9 |
| 20260506225359 | 15 | 119 | 0.0 | 8.0 | 0.05 | 0.18 | 0.18 | 99 | 1004.8 |
| 20260506224855 | 15 | 200 | 1.6 | 6.4 | 0.00 | 0.18 | 0.18 | 99 | 1005.0 |
| 20260506224353 | 15 | 171 | 1.6 | 9.7 | 0.00 | 0.18 | 0.18 | 98 | 1004.8 |
| 20260506223849 | 15 | 164 | 1.6 | 9.7 | 0.00 | 0.18 | 0.18 | 98 | 1005.0 |
| 20260506223344 | 15 | 211 | 4.8 | 12.9 | 0.00 | 0.18 | 0.18 | 98 | 1005.0 |
| 20260506222842 | 15 | 224 | 11.3 | 12.9 | 0.00 | 0.18 | 0.18 | 98 | 1004.9 |
| 20260506222337 | 15 | 143 | 0.0 | 9.7 | 0.00 | 0.18 | 0.18 | 97 | 1004.9 |
| 20260506221835 | 15 | 222 | 4.8 | 9.7 | 0.00 | 0.18 | 0.18 | 97 | 1004.8 |
| 20260506221332 | 15 | 220 | 3.2 | 8.0 | 0.00 | 0.18 | 0.18 | 97 | 1005.0 |
| 20260506220830 | 15 | 233 | 1.6 | 8.0 | 0.00 | 0.18 | 0.18 | 97 | 1005.3 |
| 20260506220325 | 15 | 225 | 12.9 | 17.7 | 0.05 | 0.18 | 0.18 | 97 | 1005.4 |
| 20260506215822 | 15 | 194 | 3.2 | 11.3 | 0.05 | 0.18 | 0.18 | 97 | 1005.2 |
| 20260506215318 | 15 | 266 | 4.8 | 8.0 | 0.00 | 0.15 | 0.15 | 96 | 1005.2 |
| 20260506214814 | 15 | 131 | 3.2 | 19.3 | 0.00 | 0.15 | 0.15 | 96 | 1005.2 |
| 20260506214311 | 15 | 98 | 1.6 | 4.8 | 0.00 | 0.15 | 0.15 | 96 | 1005.3 |
| 20260506213809 | 15 | 155 | 3.2 | 4.8 | 0.00 | 0.15 | 0.15 | 95 | 1005.6 |
| 20260506213306 | 15 | 256 | 0.0 | 6.4 | 0.00 | 0.15 | 0.15 | 95 | 1005.5 |
| 20260506212804 | 15 | 89 | 6.4 | 8.0 | 0.00 | 0.15 | 0.15 | 95 | 1005.5 |
| 20260506212259 | 15 | 206 | 6.4 | 14.5 | 0.00 | 0.15 | 0.15 | 95 | 1005.6 |
| 20260506211754 | 15 | 234 | 3.2 | 9.7 | 0.00 | 0.15 | 0.15 | 96 | 1005.5 |
| 20260506211251 | 15 | 201 | 6.4 | 12.9 | 0.00 | 0.15 | 0.15 | 96 | 1005.6 |
| 20260506210748 | 15 | 205 | 3.2 | 6.4 | 0.00 | 0.15 | 0.15 | 96 | 1005.7 |
| 20260506210245 | 15 | 258 | 6.4 | 11.3 | 0.00 | 0.15 | 0.15 | 96 | 1005.5 |
| 20260506205742 | 15 | 200 | 3.2 | 9.7 | 0.00 | 0.15 | 0.15 | 96 | 1005.5 |
| 20260506205237 | 15 | 193 | 4.8 | 8.0 | 0.05 | 0.15 | 0.15 | 95 | 1005.9 |
| 20260506204734 | 15 | 186 | 1.6 | 8.0 | 0.05 | 0.15 | 0.15 | 95 | 1005.9 |
| 20260506204232 | 15 | 196 | 8.0 | 12.9 | 0.00 | 0.15 | 0.15 | 95 | 1005.6 |
| 20260506203730 | 15 | 84 | 3.2 | 12.9 | 0.00 | 0.15 | 0.15 | 95 | 1005.8 |
| 20260506203227 | 15 | 25 | 4.8 | 9.7 | 0.00 | 0.15 | 0.15 | 95 | 1005.8 |
| 20260506202725 | 15 | 242 | 4.8 | 14.5 | 0.05 | 0.15 | 0.15 | 95 | 1005.8 |
| 20260506202221 | 15 | 204 | 11.3 | 16.1 | 0.05 | 0.15 | 0.15 | 95 | 1005.9 |
| 20260506201718 | 15 | 140 | 3.2 | 11.3 | 0.00 | 0.15 | 0.15 | 96 | 1005.8 |
| 20260506201214 | 15 | 204 | 3.2 | 16.1 | 0.05 | 0.15 | 0.15 | 96 | 1005.9 |
| 20260506200711 | 15 | 242 | 6.4 | 8.0 | 0.00 | 0.13 | 0.13 | 96 | 1005.9 |
| 20260506200208 | 15 | 196 | 3.2 | 14.5 | 0.05 | 0.13 | 0.13 | 95 | 1005.8 |
| 20260506195704 | 15 | 246 | 9.7 | 16.1 | 0.05 | 0.13 | 0.13 | 95 | 1005.9 |
| 20260506195201 | 15 | 217 | 0.0 | 12.9 | 0.00 | 0.13 | 0.13 | 95 | 1005.7 |
| 20260506194658 | 15 | 252 | 9.7 | 17.7 | 0.05 | 0.13 | 0.13 | 94 | 1005.8 |
| 20260506194154 | 16 | 62 | 3.2 | 9.7 | 0.13 | 0.13 | 0.13 | 95 | 1006.0 |
| 20260506193652 | 16 | 259 | 8.0 | 11.3 | 0.18 | 0.10 | 0.10 | 93 | 1006.0 |
| 20260506193149 | 16 | 2 | 3.2 | 16.1 | 0.13 | 0.10 | 0.10 | 93 | 1005.9 |
| 20260506192646 | 16 | 137 | 1.6 | 12.9 | 0.13 | 0.08 | 0.08 | 92 | 1005.9 |
| 20260506192142 | 16 | 215 | 8.0 | 11.3 | 0.13 | 0.08 | 0.08 | 90 | 1005.9 |
| 20260506191639 | 17 | 259 | 1.6 | 6.4 | 0.13 | 0.05 | 0.05 | 90 | 1005.9 |
| 20260506191135 | 17 | 230 | 4.8 | 11.3 | 0.13 | 0.05 | 0.05 | 88 | 1005.9 |
| 20260506190632 | 17 | 228 | 4.8 | 8.0 | 0.05 | 0.05 | 0.05 | 87 | 1005.9 |
| 20260506190129 | 17 | 230 | 0.0 | 3.2 | 0.05 | 0.03 | 0.03 | 86 | 1005.9 |
| 20260506185626 | 17 | 288 | 0.0 | 9.7 | 0.13 | 0.03 | 0.03 | 85 | 1006.1 |
| 20260506185122 | 18 | 232 | 8.0 | 11.3 | 0.13 | 0.03 | 0.03 | 82 | 1006.1 |
| 20260506184620 | 18 | 242 | 19.3 | 22.5 | 0.05 | 0.00 | 0.00 | 78 | 1006.1 |
| 20260506184117 | 19 | 89 | 4.8 | 14.5 | 0.00 | 0.00 | 0.00 | 76 | 1006.3 |
| 20260506183614 | 19 | 241 | 6.4 | 9.7 | 0.00 | 0.00 | 0.00 | 75 | 1006.4 |
| 20260506183109 | 19 | 205 | 11.3 | 14.5 | 0.00 | 0.00 | 0.00 | 74 | 1006.3 |
| 20260506182608 | 19 | 190 | 3.2 | 20.9 | 0.00 | 0.00 | 0.00 | 73 | 1006.3 |
| 20260506182104 | 20 | 181 | 8.0 | 22.5 | 0.00 | 0.00 | 0.00 | 72 | 1006.2 |
| 20260506181602 | 20 | 226 | 9.7 | 20.9 | 0.00 | 0.00 | 0.00 | 68 | 1006.3 |
| 20260506181059 | 20 | 282 | 14.5 | 24.1 | 0.00 | 0.00 | 0.00 | 67 | 1006.4 |
| 20260506180555 | 21 | 278 | 4.8 | 6.4 | 0.00 | 0.00 | 0.00 | 62 | 1006.0 |
| 20260506180052 | 21 | 274 | 6.4 | 8.0 | 0.00 | 0.00 | 0.00 | 62 | 1006.1 |
| 20260506175548 | 21 | 206 | 8.0 | 24.1 | 0.00 | 0.00 | 0.00 | 61 | 1006.3 |
| 20260506175045 | 21 | 290 | 4.8 | 8.0 | 0.00 | 0.00 | 0.00 | 60 | 1006.2 |
| 20260506174544 | 21 | 205 | 3.2 | 20.9 | 0.00 | 0.00 | 0.00 | 60 | 1006.2 |
| 20260506174039 | 21 | 180 | 9.7 | 32.2 | 0.00 | 0.00 | 0.00 | 60 | 1006.4 |
| 20260506173537 | 22 | 258 | 4.8 | 20.9 | 0.00 | 0.00 | 0.00 | 60 | 1006.2 |
| 20260506173034 | 22 | 255 | 14.5 | 24.1 | 0.00 | 0.00 | 0.00 | 59 | 1006.2 |
| 20260506172531 | 22 | 176 | 8.0 | 16.1 | 0.00 | 0.00 | 0.00 | 59 | 1006.1 |
| 20260506172027 | 22 | 217 | 14.5 | 24.1 | 0.00 | 0.00 | 0.00 | 58 | 1006.5 |
| 20260506171525 | 22 | 237 | 4.8 | 16.1 | 0.00 | 0.00 | 0.00 | 59 | 1006.5 |
| 20260506171022 | 22 | 250 | 6.4 | 20.9 | 0.00 | 0.00 | 0.00 | 59 | 1006.4 |
| 20260506170520 | 22 | 294 | 6.4 | 24.1 | 0.00 | 0.00 | 0.00 | 58 | 1006.3 |
| 20260506170012 | 22 | 201 | 12.9 | 20.9 | 0.00 | 0.00 | 0.00 | 57 | 1006.3 |
| 20260506165510 | 22 | 217 | 4.8 | 16.1 | 0.00 | 0.00 | 0.00 | 57 | 1006.4 |
| 20260506165006 | 22 | 213 | 6.4 | 8.0 | 0.00 | 0.00 | 0.00 | 59 | 1006.6 |
| 20260506164503 | 22 | 226 | 8.0 | 27.4 | 0.00 | 0.00 | 0.00 | 59 | 1006.4 |
| 20260506164001 | 22 | 209 | 6.4 | 17.7 | 0.00 | 0.00 | 0.00 | 60 | 1006.7 |
| 20260506163456 | 22 | 252 | 12.9 | 14.5 | 0.00 | 0.00 | 0.00 | 61 | 1006.8 |
| 20260506162950 | 21 | 244 | 11.3 | 19.3 | 0.00 | 0.00 | 0.00 | 61 | 1006.9 |
| 20260506162448 | 21 | 251 | 8.0 | 8.0 | 0.00 | 0.00 | 0.00 | 62 | 1006.7 |